Location: Kerguer�zec
(48.4509°N, 4.7600°W)
Time: 17:54:20
(UTC+00:00)

STARLINK-1204 - Pass Details

Date: 09 April 2020
Orbit: 549 x 551 km, 53.0° (Epoch: 04 June)

Event Time Altitude Azimuth Distance (km) Brightness Sun altitude
Rises 19:59:49 0° 295° (WNW) 2,784 9.6 -9.9°
Reaches altitude 10° 20:02:07 10° 291° (WNW) 1,883 8.0 -10.3°
Maximum altitude 20:06:17 52° 215° (SW) 715 4.2 -10.9°
Enters shadow 20:09:48 14° 141° (SE) 1,625 5.5 -11.4°
